Weather Roundup
Issued by NWS

Home | Current Version | Previous Version | Text Only | Print | Product List | Glossary On
Versions: 1 2 3 4 5 6 7 8 9 10 11 12 13 14 15 16 17 18 19 20 21 22 23 24 25 26 27 28 29 30 31 32 33 34 35 36 37 38 39 40 41 42 43 44 45 46 47 48 49 50
000
NZUS93 KARX 210059
HRRWXR

CURRENT HOURLY OBSERVATIONS ACROSS
MUCH OF THE UPPER MISSISSIPPI VALLEY
NATIONAL WEATHER SERVICE LA CROSSE WI
700 PM CST MON FEB 20 2017


...SOUTHEAST MINNESOTA...


CITY           SKY/WX    TMP DP  RH WIND       PRES   REMARKS
ROCHESTER      CLOUDY    52  52 100 S17       29.74S
ROCHESTER/MAYO CLOUDY    53  53 100 S7        29.74R
WINONA         DRIZZLE   55  54  94 S6        29.76F
AUSTIN         CLOUDY    54  52  94 S10       29.74R FOG
ALBERT LEA     CLOUDY    55  54  94 SW7G16    29.75R FOG
DODGE CENTER   NOT AVBL
PRESTON        CLOUDY    52  51  95 S10       29.76F FOG
OWATONNA       CLOUDY    54  52  94 S12       29.72S
FARIBAULT      CLOUDY    54  54 100 S9        29.71S
$$

...ELSEWHERE IN MINNESOTA...


CITY           SKY/WX    TMP DP  RH WIND       PRES   REMARKS
MINNEAPOLIS    CLOUDY    53  51  93 S7        29.68R
INTNL FALLS    LGT RAIN  43  41  93 VRB5      29.52F FOG
DULUTH         LGT RAIN  42  41  96 SE9       29.59F VSB 1/2
RED WING       LGT RAIN  54  52  94 CALM      29.71R
REDWOOD FALLS  CLOUDY    45  40  82 NW15      29.76R
MANKATO          N/A     53  49  86 W17G25    29.72R
WORTHINGTON    CLEAR     45  42  89 W14       29.83R
FAIRMONT       CLOUDY    49  46  90 W14       29.78R
$$

...SOUTHWEST WISCONSIN...


CITY           SKY/WX    TMP DP  RH WIND       PRES   REMARKS
LA CROSSE      LGT RAIN  55  54  96 S9        29.79R FOG
PRAIRIE DU CHI DRIZZLE   55  54  96 S6        29.83R
BOSCOBEL       RAIN      60  57  89 S14G22    29.83S FOG
LONE ROCK      NOT AVBL
PLATTEVILLE    CLOUDY    55  55 100 S8        29.87R
FORT MC COY    LGT RAIN  55  55  97 S12G21    29.80R
CAMP DOUGLAS   LGT RAIN  55  55 100 S8        29.80S FOG
MAUSTON-NEW LI RAIN      56  55  95 SE9       29.80F
VIROQUA        CLOUDY    55  55  99 SW13      29.82R
WIS DELLS      DRIZZLE   55  52  90 S9        29.82F
$$

...ELSEWHERE IN WISCONSIN...


CITY           SKY/WX    TMP DP  RH WIND       PRES   REMARKS
MILWAUKEE      CLOUDY    59  41  51 S20G30    29.93F
MADISON        LGT RAIN  57  53  86 S8        29.85F
GREEN BAY      RAIN      49  45  86 SE22      29.89F
EAU CLAIRE     NOT AVBL
BLACK RVR FLS  RAIN      55  55 100 S5        29.78R
MEDFORD        LGT RAIN  44  44  99 S12       29.75S VSB<1/4
WAUSAU         RAIN      47  46  97 S14       29.77S FOG
WIS RAPIDS     RAIN      53  53 100 S7        29.81R FOG
MARSHFIELD     RAIN      51  50  96 S17       29.76S FOG
RICE LAKE      DRIZZLE   48  47  97 CALM      29.71F
$$

...NORTHEAST IOWA...


CITY           SKY/WX    TMP DP  RH WIND       PRES   REMARKS
WATERLOO       CLOUDY    55  53  93 SW8       29.83R
DUBUQUE        CLOUDY    55  54  96 S10       29.86S
DECORAH        CLOUDY    55  54  94 S9G16     29.80R
MASON CITY     CLOUDY    54  53  97 SW14      29.77R
CHARLES CITY   CLOUDY    54  54 100 S10       29.81R FOG
OELWEIN        CLOUDY    55  55 100 S13       29.83R
$$

...ELSEWHERE IN IOWA...


CITY           SKY/WX    TMP DP  RH WIND       PRES   REMARKS
DES MOINES     LGT RAIN  61  57  87 SW9       29.85R
IOWA CITY      CLOUDY    59  56  89 S7        29.87R
FORT DODGE     CLOUDY    54  50  87 W13G22    29.83R
MARSHALLTOWN   CLOUDY    58  57  97 SW10      29.83R
CEDAR RAPIDS   CLOUDY    55  55 100 S6        29.85R
$$

...NORTHERN ILLINOIS...


CITY           SKY/WX    TMP DP  RH WIND       PRES   REMARKS
CHICAGO-OHARE  CLOUDY    63  44  50 SE15G24   29.95F
CHICAGO-MIDWAY CLOUDY    63  43  48 SE15      29.97F
MOLINE         CLOUDY    68  52  56 SW12      29.87R
ROCKFORD       CLOUDY    63  52  67 S18G26    29.90F
PEORIA         MOCLDY    67  51  56 S15       29.92R
$$

NOTE: "FAIR" INDICATES FEW OR NO CLOUDS BELOW 12,000 FEET WITH NO
SIGNIFICANT WEATHER AND/OR OBSTRUCTIONS TO VISIBILITY. WIND
SPEEDS ARE IN MILES-PER-HOUR.




USA.gov is the U.S. government's official web portal to all federal, state and local government web resources and services.